| time (UTC) | temp F | wind direction | speed MPH | gust MPH | rain 1hr in | rain 24hr in | rain mn in | humidity % | barometer mb |
| 20260505193505 | 57 | 99 | 4.0 | 10.0 | 0.00 | 0.00 | 0.00 | 65 | 1013.1 |
| 20260505193012 | 57 | 90 | 5.0 | 9.0 | 0.00 | 0.00 | 0.00 | 65 | 1013.0 |
| 20260505192505 | 57 | 109 | 4.0 | 10.0 | 0.00 | 0.00 | 0.00 | 65 | 1013.0 |
| 20260505192011 | 57 | 118 | 5.0 | 12.0 | 0.00 | 0.00 | 0.00 | 65 | 1013.0 |
| 20260505191504 | 57 | 92 | 6.0 | 14.0 | 0.00 | 0.00 | 0.00 | 64 | 1013.0 |
| 20260505190005 | 58 | 97 | 0.0 | 2.0 | 0.00 | 0.00 | 0.00 | 64 | 1012.9 |
| 20260505185011 | 58 | 132 | 2.0 | 3.0 | 0.00 | 0.00 | 0.00 | 62 | 1012.8 |
| 20260505184505 | 58 | 104 | 2.0 | 3.0 | 0.00 | 0.00 | 0.00 | 62 | 1012.8 |
| 20260505184011 | 58 | 122 | 2.0 | 3.0 | 0.00 | 0.00 | 0.00 | 62 | 1012.7 |
| 20260505183505 | 58 | 134 | 2.0 | 3.0 | 0.00 | 0.00 | 0.00 | 62 | 1012.7 |
| 20260505183011 | 58 | 104 | 2.0 | 3.0 | 0.00 | 0.00 | 0.00 | 62 | 1012.6 |
| 20260505182504 | 58 | 111 | 0.0 | 3.0 | 0.00 | 0.00 | 0.00 | 62 | 1012.6 |
| 20260505182012 | 59 | 103 | 3.0 | 6.0 | 0.00 | 0.00 | 0.00 | 60 | 1012.6 |
| 20260505181505 | 59 | 171 | 2.0 | 3.0 | 0.00 | 0.00 | 0.00 | 60 | 1012.6 |
| 20260505181011 | 59 | 151 | 2.0 | 5.0 | 0.00 | 0.00 | 0.00 | 60 | 1012.6 |
| 20260505180004 | 59 | 94 | 2.0 | 3.0 | 0.00 | 0.00 | 0.00 | 60 | 1012.7 |
| 20260505175505 | 59 | 121 | 2.0 | 3.0 | 0.00 | 0.00 | 0.00 | 60 | 1012.7 |
| 20260505174504 | 59 | 152 | 3.0 | 6.0 | 0.00 | 0.00 | 0.00 | 59 | 1012.7 |
| 20260505174011 | 59 | 131 | 3.0 | 5.0 | 0.00 | 0.00 | 0.00 | 58 | 1012.6 |
| 20260505173011 | 59 | 121 | 3.0 | 7.0 | 0.00 | 0.00 | 0.00 | 57 | 1012.6 |
| 20260505172507 | 59 | 126 | 3.0 | 6.0 | 0.00 | 0.00 | 0.00 | 57 | 1012.6 |
| 20260505172011 | 60 | 160 | 1.0 | 6.0 | 0.00 | 0.00 | 0.00 | 56 | 1012.7 |
| 20260505171505 | 60 | 142 | 5.0 | 9.0 | 0.00 | 0.00 | 0.00 | 56 | 1012.6 |
| 20260505171011 | 60 | 134 | 4.0 | 8.0 | 0.00 | 0.00 | 0.00 | 56 | 1012.6 |
| 20260505170505 | 60 | 133 | 3.0 | 8.0 | 0.00 | 0.00 | 0.00 | 56 | 1012.7 |
| 20260505170004 | 60 | 137 | 3.0 | 9.0 | 0.00 | 0.00 | 0.00 | 55 | 1012.7 |
| 20260505165504 | 60 | 129 | 4.0 | 7.0 | 0.00 | 0.00 | 0.00 | 55 | 1012.7 |
| 20260505165011 | 60 | 135 | 5.0 | 9.0 | 0.00 | 0.00 | 0.00 | 55 | 1012.7 |
| 20260505164011 | 60 | 142 | 3.0 | 10.0 | 0.00 | 0.00 | 0.00 | 54 | 1012.7 |
| 20260505163505 | 60 | 187 | 5.0 | 12.0 | 0.00 | 0.00 | 0.00 | 54 | 1012.6 |
| 20260505163012 | 60 | 154 | 3.0 | 8.0 | 0.00 | 0.00 | 0.00 | 54 | 1012.7 |
| 20260505162504 | 61 | 158 | 3.0 | 7.0 | 0.00 | 0.00 | 0.00 | 54 | 1012.7 |
| 20260505162011 | 61 | 134 | 4.0 | 8.0 | 0.00 | 0.00 | 0.00 | 53 | 1012.6 |
| 20260505161505 | 61 | 103 | 6.0 | 10.0 | 0.00 | 0.00 | 0.00 | 52 | 1012.6 |
| 20260505161012 | 61 | 106 | 5.0 | 9.0 | 0.00 | 0.00 | 0.00 | 52 | 1012.6 |
| 20260505160505 | 61 | 103 | 3.0 | 7.0 | 0.00 | 0.00 | 0.00 | 53 | 1012.6 |
| 20260505152504 | 62 | 87 | 2.0 | 3.0 | 0.00 | 0.00 | 0.00 | 53 | 1012.7 |
| 20260505152011 | 62 | 107 | 2.0 | 6.0 | 0.00 | 0.00 | 0.00 | 52 | 1012.7 |
| 20260505151504 | 62 | 105 | 2.0 | 3.0 | 0.00 | 0.00 | 0.00 | 52 | 1012.7 |
| 20260505151011 | 62 | 136 | 4.0 | 7.0 | 0.00 | 0.00 | 0.00 | 51 | 1012.8 |
| 20260505150504 | 62 | 130 | 1.0 | 3.0 | 0.00 | 0.00 | 0.00 | 51 | 1012.8 |
| 20260505140504 | 63 | 24 | 1.0 | 3.0 | 0.00 | 0.00 | 0.00 | 50 | 1013.0 |
| 20260505124506 | 62 | 116 | 2.0 | 3.0 | 0.00 | 0.00 | 0.00 | 53 | 1013.4 |
| 20260505124013 | 62 | 86 | 5.0 | 9.0 | 0.00 | 0.00 | 0.00 | 52 | 1013.4 |
| 20260505123509 | 62 | 81 | 2.0 | 5.0 | 0.00 | 0.00 | 0.00 | 54 | 1013.4 |
| 20260505123012 | 62 | 138 | 2.0 | 5.0 | 0.00 | 0.00 | 0.00 | 54 | 1013.4 |
| 20260505122506 | 62 | 54 | 3.0 | 9.0 | 0.00 | 0.00 | 0.00 | 54 | 1013.4 |
| 20260505122013 | 63 | 89 | 5.0 | 12.0 | 0.00 | 0.00 | 0.00 | 52 | 1013.3 |
| 20260505121505 | 63 | 99 | 4.0 | 9.0 | 0.00 | 0.00 | 0.00 | 52 | 1013.3 |
| 20260505120506 | 63 | 63 | 5.0 | 12.0 | 0.00 | 0.00 | 0.00 | 53 | 1013.3 |
| 20260505120006 | 63 | 106 | 3.0 | 8.0 | 0.00 | 0.00 | 0.00 | 51 | 1013.4 |
| 20260505115506 | 62 | 132 | 2.0 | 9.0 | 0.00 | 0.00 | 0.00 | 53 | 1013.5 |
| 20260505115013 | 61 | 88 | 8.0 | 12.0 | 0.00 | 0.00 | 0.00 | 52 | 1013.5 |
| 20260505114505 | 62 | 124 | 3.0 | 7.0 | 0.00 | 0.00 | 0.00 | 54 | 1013.5 |
| 20260505114012 | 61 | 74 | 4.0 | 10.0 | 0.00 | 0.00 | 0.00 | 57 | 1013.5 |
| 20260505113506 | 61 | 60 | 3.0 | 10.0 | 0.00 | 0.00 | 0.00 | 57 | 1013.5 |
| 20260505113013 | 61 | 112 | 7.0 | 12.0 | 0.00 | 0.00 | 0.00 | 56 | 1013.5 |
| 20260505112506 | 61 | 82 | 2.0 | 7.0 | 0.00 | 0.00 | 0.00 | 57 | 1013.5 |
| 20260505111506 | 61 | 131 | 6.0 | 12.0 | 0.00 | 0.00 | 0.00 | 56 | 1013.7 |
| 20260505111012 | 61 | 54 | 2.0 | 6.0 | 0.00 | 0.00 | 0.00 | 58 | 1013.6 |
| 20260505110506 | 61 | 33 | 3.0 | 12.0 | 0.00 | 0.00 | 0.00 | 58 | 1013.6 |
| 20260505102013 | 60 | 83 | 5.0 | 12.0 | 0.00 | 0.00 | 0.00 | 60 | 1014.1 |
| 20260505101506 | 60 | 93 | 3.0 | 9.0 | 0.00 | 0.00 | 0.00 | 63 | 1014.1 |
| 20260505101013 | 59 | 94 | 1.0 | 5.0 | 0.00 | 0.00 | 0.00 | 63 | 1014.1 |
| 20260505100506 | 59 | 78 | 3.0 | 8.0 | 0.00 | 0.00 | 0.00 | 63 | 1014.1 |
| 20260505100006 | 59 | 41 | 3.0 | 9.0 | 0.00 | 0.00 | 0.00 | 63 | 1014.1 |
| 20260505095505 | 58 | 68 | 5.0 | 7.0 | 0.00 | 0.00 | 0.00 | 63 | 1014.1 |
| 20260505095012 | 58 | 54 | 3.0 | 9.0 | 0.00 | 0.00 | 0.00 | 63 | 1014.2 |
| 20260505094505 | 58 | 51 | 4.0 | 9.0 | 0.00 | 0.00 | 0.00 | 64 | 1014.2 |
| 20260505093506 | 58 | 50 | 2.0 | 7.0 | 0.00 | 0.00 | 0.00 | 68 | 1014.2 |
| 20260505093012 | 57 | 59 | 4.0 | 8.0 | 0.00 | 0.00 | 0.00 | 70 | 1014.2 |
| 20260505092506 | 57 | 38 | 3.0 | 6.0 | 0.00 | 0.00 | 0.00 | 71 | 1014.2 |
| 20260505092012 | 57 | 37 | 3.0 | 6.0 | 0.00 | 0.00 | 0.00 | 72 | 1014.2 |
| 20260505091505 | 56 | 111 | 3.0 | 8.0 | 0.00 | 0.00 | 0.00 | 73 | 1014.3 |
| 20260505091013 | 56 | 88 | 3.0 | 9.0 | 0.00 | 0.00 | 0.00 | 75 | 1014.4 |
| 20260505090506 | 55 | 59 | 3.0 | 6.0 | 0.00 | 0.00 | 0.00 | 75 | 1014.4 |
| 20260505090005 | 55 | 47 | 3.0 | 6.0 | 0.00 | 0.00 | 0.00 | 75 | 1014.4 |
| 20260505085505 | 55 | 64 | 2.0 | 6.0 | 0.00 | 0.00 | 0.00 | 77 | 1014.4 |
| 20260505085013 | 55 | 34 | 2.0 | 5.0 | 0.00 | 0.00 | 0.00 | 77 | 1014.5 |
| 20260505084505 | 54 | 25 | 3.0 | 7.0 | 0.00 | 0.00 | 0.00 | 77 | 1014.5 |
| 20260505084012 | 54 | 19 | 2.0 | 3.0 | 0.00 | 0.00 | 0.00 | 78 | 1014.5 |
| 20260505083506 | 54 | 55 | 3.0 | 9.0 | 0.00 | 0.00 | 0.00 | 77 | 1014.5 |
| 20260505083013 | 54 | 41 | 4.0 | 9.0 | 0.00 | 0.00 | 0.00 | 77 | 1014.6 |
| 20260505082505 | 54 | 61 | 1.0 | 3.0 | 0.00 | 0.00 | 0.00 | 78 | 1014.5 |
| 20260505082012 | 54 | 59 | 3.0 | 7.0 | 0.00 | 0.00 | 0.00 | 79 | 1014.5 |
| 20260505081012 | 54 | 82 | 3.0 | 9.0 | 0.00 | 0.00 | 0.00 | 78 | 1014.5 |
| 20260505080506 | 54 | 51 | 3.0 | 9.0 | 0.00 | 0.00 | 0.00 | 78 | 1014.4 |
| 20260505075013 | 53 | 62 | 4.0 | 10.0 | 0.00 | 0.00 | 0.00 | 79 | 1014.4 |
| 20260505074505 | 53 | 64 | 4.0 | 8.0 | 0.00 | 0.00 | 0.00 | 80 | 1014.3 |
| 20260505074012 | 53 | 100 | 3.0 | 8.0 | 0.00 | 0.00 | 0.00 | 81 | 1014.4 |
| 20260505073506 | 53 | 65 | 3.0 | 9.0 | 0.00 | 0.00 | 0.00 | 81 | 1014.4 |
| 20260505072506 | 53 | 69 | 2.0 | 6.0 | 0.00 | 0.00 | 0.00 | 81 | 1014.5 |
| 20260505071013 | 53 | 49 | 2.0 | 8.0 | 0.00 | 0.00 | 0.00 | 82 | 1014.5 |
| 20260505065508 | 52 | 60 | 2.0 | 7.0 | 0.00 | 0.00 | 0.00 | 82 | 1014.5 |
| 20260505065012 | 52 | 58 | 2.0 | 3.0 | 0.00 | 0.00 | 0.00 | 83 | 1014.6 |
| 20260505064505 | 52 | 57 | 1.0 | 3.0 | 0.00 | 0.00 | 0.00 | 83 | 1014.6 |
| 20260505063505 | 52 | 23 | 1.0 | 3.0 | 0.00 | 0.00 | 0.00 | 84 | 1014.6 |
| 20260505063012 | 52 | 39 | 1.0 | 5.0 | 0.00 | 0.00 | 0.00 | 84 | 1014.7 |
| 20260505062506 | 52 | 357 | 2.0 | 3.0 | 0.00 | 0.00 | 0.00 | 84 | 1014.6 |
| 20260505062013 | 52 | 46 | 2.0 | 3.0 | 0.00 | 0.00 | 0.00 | 84 | 1014.7 |
| 20260505061505 | 52 | 67 | 2.0 | 5.0 | 0.00 | 0.00 | 0.00 | 84 | 1014.6 |
| 20260505061013 | 52 | 71 | 0.0 | 6.0 | 0.00 | 0.00 | 0.00 | 84 | 1014.6 |
| 20260505060506 | 51 | 45 | 1.0 | 3.0 | 0.00 | 0.00 | 0.00 | 85 | 1014.6 |
| 20260505060006 | 51 | 75 | 0.0 | 2.0 | 0.00 | 0.00 | 0.00 | 85 | 1014.6 |
| 20260505055506 | 51 | 75 | 1.0 | 2.0 | 0.00 | 0.00 | 0.00 | 85 | 1014.6 |
| 20260505055012 | 51 | 65 | 1.0 | 3.0 | 0.00 | 0.00 | 0.00 | 85 | 1014.6 |
| 20260505054505 | 51 | 44 | 0.0 | 3.0 | 0.00 | 0.00 | 0.00 | 85 | 1014.7 |
| 20260505053505 | 51 | 57 | 1.0 | 3.0 | 0.00 | 0.00 | 0.00 | 86 | 1014.8 |
| 20260505052505 | 51 | 83 | 1.0 | 2.0 | 0.00 | 0.00 | 0.00 | 86 | 1014.8 |
| 20260505052012 | 51 | 83 | 0.0 | 1.0 | 0.00 | 0.00 | 0.00 | 86 | 1014.8 |
| 20260505051505 | 51 | 85 | 1.0 | 2.0 | 0.00 | 0.00 | 0.00 | 86 | 1014.9 |
| 20260505051012 | 51 | 67 | 0.0 | 1.0 | 0.00 | 0.00 | 0.00 | 86 | 1014.9 |
| 20260505050506 | 51 | 67 | 0.0 | 2.0 | 0.00 | 0.00 | 0.00 | 86 | 1014.9 |
| 20260505041505 | 51 | 84 | 1.0 | 3.0 | 0.00 | 0.00 | 0.00 | 85 | 1014.8 |
| 20260505041012 | 51 | 74 | 1.0 | 3.0 | 0.00 | 0.00 | 0.00 | 85 | 1014.8 |
| 20260505040506 | 51 | 84 | 2.0 | 3.0 | 0.00 | 0.00 | 0.00 | 85 | 1014.8 |
| 20260505040005 | 51 | 96 | 1.0 | 6.0 | 0.00 | 0.00 | 0.00 | 85 | 1014.8 |
| 20260505035012 | 51 | 96 | 3.0 | 7.0 | 0.00 | 0.00 | 0.00 | 85 | 1014.8 |
| 20260505034505 | 51 | 102 | 5.0 | 8.0 | 0.00 | 0.00 | 0.00 | 86 | 1014.9 |
| 20260505034012 | 52 | 92 | 2.0 | 7.0 | 0.00 | 0.00 | 0.00 | 86 | 1014.8 |
| 20260505033506 | 52 | 87 | 1.0 | 6.0 | 0.00 | 0.00 | 0.00 | 86 | 1014.8 |
| 20260505033012 | 52 | 72 | 1.0 | 8.0 | 0.00 | 0.00 | 0.00 | 86 | 1014.8 |
| 20260505032505 | 52 | 95 | 3.0 | 8.0 | 0.00 | 0.00 | 0.00 | 86 | 1014.9 |
| 20260505032011 | 52 | 72 | 1.0 | 7.0 | 0.00 | 0.00 | 0.00 | 86 | 1014.8 |
| 20260505031505 | 52 | 90 | 2.0 | 6.0 | 0.00 | 0.00 | 0.00 | 86 | 1014.9 |
| 20260505031012 | 52 | 104 | 4.0 | 8.0 | 0.00 | 0.00 | 0.00 | 86 | 1014.9 |
| 20260505030506 | 52 | 88 | 3.0 | 6.0 | 0.00 | 0.00 | 0.00 | 86 | 1014.9 |
| 20260505030005 | 52 | 107 | 2.0 | 6.0 | 0.00 | 0.00 | 0.00 | 86 | 1014.9 |
| 20260505024505 | 52 | 94 | 1.0 | 3.0 | 0.00 | 0.00 | 0.00 | 87 | 1014.9 |
| 20260505024012 | 52 | 113 | 1.0 | 5.0 | 0.00 | 0.00 | 0.00 | 86 | 1014.9 |
| 20260505023506 | 52 | 116 | 2.0 | 8.0 | 0.00 | 0.00 | 0.00 | 86 | 1014.9 |
| 20260505023012 | 52 | 110 | 2.0 | 7.0 | 0.00 | 0.00 | 0.00 | 86 | 1015.0 |
| 20260505022505 | 52 | 111 | 3.0 | 8.0 | 0.00 | 0.00 | 0.00 | 86 | 1015.1 |
| 20260505022012 | 52 | 79 | 3.0 | 7.0 | 0.00 | 0.00 | 0.00 | 87 | 1015.0 |
| 20260505021012 | 52 | 43 | 1.0 | 5.0 | 0.00 | 0.00 | 0.00 | 87 | 1014.9 |
| 20260505020505 | 53 | 41 | 1.0 | 5.0 | 0.00 | 0.00 | 0.00 | 88 | 1014.9 |
| 20260505020004 | 53 | 62 | 1.0 | 3.0 | 0.00 | 0.00 | 0.00 | 88 | 1015.0 |
| 20260505015505 | 53 | 79 | 3.0 | 7.0 | 0.00 | 0.00 | 0.00 | 88 | 1014.9 |
| 20260505015012 | 53 | 85 | 4.0 | 8.0 | 0.00 | 0.00 | 0.00 | 88 | 1014.9 |
| 20260505014505 | 53 | 87 | 3.0 | 9.0 | 0.00 | 0.00 | 0.00 | 88 | 1015.0 |
| 20260505014012 | 53 | 85 | 4.0 | 8.0 | 0.00 | 0.00 | 0.00 | 88 | 1015.1 |
| 20260505013505 | 53 | 94 | 1.0 | 3.0 | 0.00 | 0.00 | 0.00 | 88 | 1015.2 |
| 20260505013012 | 53 | 111 | 3.0 | 7.0 | 0.00 | 0.00 | 0.00 | 88 | 1015.2 |
| 20260505012505 | 53 | 114 | 3.0 | 6.0 | 0.00 | 0.00 | 0.00 | 87 | 1015.3 |
| 20260505012012 | 53 | 131 | 2.0 | 6.0 | 0.00 | 0.00 | 0.00 | 88 | 1015.3 |
| 20260505011505 | 53 | 117 | 3.0 | 7.0 | 0.00 | 0.00 | 0.00 | 87 | 1015.4 |
| 20260505011012 | 53 | 107 | 2.0 | 6.0 | 0.00 | 0.00 | 0.00 | 87 | 1015.4 |
| 20260505010505 | 53 | 106 | 3.0 | 6.0 | 0.00 | 0.00 | 0.00 | 87 | 1015.4 |
| 20260505010005 | 53 | 139 | 2.0 | 6.0 | 0.00 | 0.00 | 0.00 | 88 | 1015.4 |
| 20260505005505 | 53 | 155 | 4.0 | 7.0 | 0.00 | 0.00 | 0.00 | 87 | 1015.4 |
| 20260505004505 | 53 | 115 | 3.0 | 7.0 | 0.00 | 0.00 | 0.00 | 87 | 1015.3 |
| 20260505004011 | 54 | 129 | 3.0 | 7.0 | 0.00 | 0.00 | 0.00 | 86 | 1015.4 |
| 20260505002505 | 54 | 117 | 3.0 | 8.0 | 0.00 | 0.00 | 0.00 | 85 | 1015.5 |
| 20260505002012 | 54 | 143 | 2.0 | 8.0 | 0.00 | 0.00 | 0.00 | 85 | 1015.5 |
| 20260505001505 | 54 | 111 | 3.0 | 7.0 | 0.00 | 0.00 | 0.00 | 84 | 1015.6 |
| 20260505001012 | 54 | 134 | 5.0 | 14.0 | 0.00 | 0.00 | 0.00 | 83 | 1015.6 |
| 20260505000505 | 54 | 107 | 5.0 | 8.0 | 0.00 | 0.00 | 0.00 | 81 | 1015.5 |
| 20260505000005 | 54 | 86 | 3.0 | 7.0 | 0.00 | 0.00 | 0.00 | 81 | 1015.6 |
| 20260504235505 | 54 | 85 | 4.0 | 9.0 | 0.00 | 0.00 | 0.00 | 81 | 1015.6 |
| 20260504235012 | 54 | 94 | 5.0 | 8.0 | 0.00 | 0.00 | 0.00 | 81 | 1015.7 |
| 20260504234505 | 54 | 96 | 2.0 | 9.0 | 0.00 | 0.00 | 0.00 | 81 | 1015.9 |
| 20260504234012 | 54 | 85 | 3.0 | 5.0 | 0.00 | 0.00 | 0.00 | 81 | 1015.9 |
| 20260504233505 | 54 | 94 | 3.0 | 9.0 | 0.00 | 0.00 | 0.00 | 80 | 1015.9 |
| 20260504233011 | 54 | 62 | 1.0 | 5.0 | 0.00 | 0.00 | 0.00 | 80 | 1015.9 |
| 20260504232505 | 54 | 72 | 2.0 | 6.0 | 0.00 | 0.00 | 0.00 | 80 | 1015.9 |
| 20260504232012 | 54 | 84 | 3.0 | 7.0 | 0.00 | 0.00 | 0.00 | 80 | 1015.8 |
| 20260504231505 | 54 | 57 | 2.0 | 3.0 | 0.00 | 0.00 | 0.00 | 80 | 1015.9 |
| 20260504230505 | 54 | 72 | 2.0 | 6.0 | 0.00 | 0.00 | 0.00 | 80 | 1015.9 |
| 20260504230005 | 54 | 43 | 2.0 | 3.0 | 0.00 | 0.00 | 0.00 | 80 | 1015.9 |
| 20260504225520 | 54 | 74 | 2.0 | 8.0 | 0.00 | 0.00 | 0.00 | 80 | 1015.9 |
| 20260504225012 | 54 | 63 | 3.0 | 8.0 | 0.00 | 0.00 | 0.00 | 80 | 1015.9 |
| 20260504224505 | 54 | 92 | 1.0 | 6.0 | 0.00 | 0.00 | 0.00 | 80 | 1015.9 |
| 20260504224012 | 54 | 83 | 3.0 | 8.0 | 0.00 | 0.00 | 0.00 | 80 | 1015.9 |
| 20260504223012 | 54 | 50 | 2.0 | 5.0 | 0.00 | 0.00 | 0.00 | 80 | 1016.0 |
| 20260504222505 | 54 | 63 | 3.0 | 10.0 | 0.00 | 0.00 | 0.00 | 80 | 1016.0 |
| 20260504222012 | 55 | 47 | 2.0 | 12.0 | 0.00 | 0.00 | 0.00 | 80 | 1016.1 |
| 20260504221012 | 55 | 56 | 3.0 | 6.0 | 0.00 | 0.00 | 0.00 | 80 | 1016.1 |
| 20260504220520 | 55 | 50 | 3.0 | 9.0 | 0.00 | 0.00 | 0.00 | 80 | 1016.1 |
| 20260504220005 | 55 | 59 | 1.0 | 6.0 | 0.00 | 0.00 | 0.00 | 80 | 1016.2 |
| 20260504215505 | 55 | 52 | 3.0 | 7.0 | 0.00 | 0.00 | 0.00 | 79 | 1016.1 |
| 20260504215012 | 55 | 36 | 3.0 | 9.0 | 0.00 | 0.00 | 0.00 | 79 | 1016.1 |
| 20260504214505 | 55 | 40 | 4.0 | 9.0 | 0.00 | 0.00 | 0.00 | 79 | 1016.1 |
| 20260504214012 | 55 | 43 | 4.0 | 10.0 | 0.00 | 0.00 | 0.00 | 79 | 1016.1 |
| 20260504213505 | 55 | 42 | 2.0 | 9.0 | 0.00 | 0.00 | 0.00 | 79 | 1016.0 |
| 20260504213012 | 55 | 56 | 2.0 | 5.0 | 0.00 | 0.00 | 0.00 | 79 | 1016.0 |
| 20260504212505 | 55 | 68 | 2.0 | 7.0 | 0.00 | 0.00 | 0.00 | 79 | 1016.0 |
| 20260504212012 | 56 | 55 | 4.0 | 7.0 | 0.00 | 0.00 | 0.00 | 78 | 1015.9 |
| 20260504211505 | 56 | 69 | 3.0 | 12.0 | 0.00 | 0.00 | 0.00 | 78 | 1015.9 |
| 20260504211012 | 56 | 50 | 3.0 | 12.0 | 0.00 | 0.00 | 0.00 | 79 | 1015.9 |
| 20260504210505 | 56 | 48 | 5.0 | 10.0 | 0.00 | 0.00 | 0.00 | 79 | 1016.0 |
| 20260504210005 | 56 | 47 | 3.0 | 9.0 | 0.00 | 0.00 | 0.00 | 79 | 1016.0 |
| 20260504205505 | 56 | 46 | 3.0 | 10.0 | 0.00 | 0.00 | 0.00 | 78 | 1016.0 |
| 20260504205012 | 56 | 55 | 3.0 | 10.0 | 0.00 | 0.00 | 0.00 | 78 | 1016.0 |
| 20260504204505 | 56 | 51 | 3.0 | 9.0 | 0.00 | 0.00 | 0.00 | 78 | 1016.0 |
| 20260504203505 | 57 | 50 | 3.0 | 10.0 | 0.00 | 0.00 | 0.00 | 78 | 1015.9 |
| 20260504203012 | 57 | 54 | 2.0 | 9.0 | 0.00 | 0.00 | 0.00 | 78 | 1015.9 |
| 20260504202505 | 57 | 76 | 1.0 | 6.0 | 0.00 | 0.00 | 0.00 | 78 | 1015.9 |
| 20260504202012 | 57 | 52 | 3.0 | 7.0 | 0.00 | 0.00 | 0.00 | 78 | 1016.0 |
| 20260504201505 | 57 | 55 | 2.0 | 9.0 | 0.00 | 0.00 | 0.00 | 78 | 1015.9 |
| 20260504201012 | 57 | 65 | 2.0 | 6.0 | 0.00 | 0.00 | 0.00 | 78 | 1015.9 |
| 20260504200505 | 58 | 49 | 3.0 | 7.0 | 0.00 | 0.00 | 0.00 | 78 | 1015.9 |
| 20260504200005 | 58 | 96 | 2.0 | 7.0 | 0.00 | 0.00 | 0.00 | 78 | 1015.8 |
| 20260504195505 | 58 | 90 | 3.0 | 5.0 | 0.00 | 0.00 | 0.00 | 78 | 1015.8 |
| 20260504195012 | 58 | 103 | 1.0 | 7.0 | 0.00 | 0.00 | 0.00 | 78 | 1015.7 |
| 20260504194505 | 58 | 81 | 3.0 | 3.0 | 0.00 | 0.00 | 0.00 | 78 | 1015.7 |
| 20260504194012 | 58 | 99 | 3.0 | 7.0 | 0.00 | 0.00 | 0.00 | 77 | 1015.7 |